RH
84 84 86 90 87 84 79 79 78 74 72 77 95 100 99 96 100 96 94 90 67 61 55 53 52 52 44 43 63 52 57 71 82 81 75 68 64 57 61 61 85 86 91 92 77 83 80 45 60 43 30 36 34 37
78 78 82 87 86 80 78 77 76 75 73 73 75 93 99 99 100 100 98 99 93 82 66 65 64 64 60 51 43 45 54 62 59 72 73 66 62 66 66 59 63 66 62 79 73 67 41 45 34 27 30 29 34 36
73 75 81 88 87 83 81 79 76 76 80 81 78 86 99 100 100 100 100 100 100 95 84 84 67 66 66 65 56 50 53 48 54 60 71 80 79 66 65 67 48 44 46 58 51 47 45 40 36 32 29 34 33 36
77 77 79 84 88 87 84 82 81 78 77 80 84 91 99 98 100 100 100 100 100 97 93 77 73 67 58 49 55 56 51 54 59 65 61 83 79 54 64 54 58 44 44 49 46 35 32 30 28 26 26 30 29 28
75 77 78 81 83 84 84 80 75 71 68 62 83 94 100 100 100 100 99 100 100 98 93 87 87 85 84 88 83 62 64 58 59 65 82 90 70 62 64 69 56 44 42 46 42 29 30 27 25 21 22 21 18 21
50 58 63 66 69 67 62 58 54 49 47 46 78 95 100 100 100 100 98 97 100 100 99 99 92 86 86 80 79 72 69 74 65 65 74 63 58 56 80 86 50 40 40 40 34 32 31 30 30 28 26 24 21 23
36 38 40 39 34 33 34 38 37 56 78 91 99 99 98 100 100 99 89 88 81 100 98 99 99 99 92 88 89 89 92 95 89 82 79 73 64 62 87 82 42 40 38 36 35 37 37 34 33 30 29 27 26 26
44 37 35 31 27 26 29 40 59 69 98 97 96 98 96 100 100 100 99 100 97 96 99 99 98 98 94 87 93 95 95 97 96 91 81 74 69 66 85 56 47 47 45 42 39 38 38 36 35 35 32 30 33 33
61 50 42 36 28 24 24 35 71 79 80 92 89 98 100 100 100 97 100 100 100 95 99 99 98 94 95 89 94 97 94 98 82 93 85 77 84 88 61 52 51 51 50 48 47 41 39 36 36 37 36 35 33 32
62 64 55 45 34 28 24 25 46 82 84 84 99 99 100 99 98 98 100 100 100 100 100 99 92 94 79 92 98 90 97 96 99 88 80 95 88 65 57 49 52 52 53 54 57 54 51 48 43 37 33 33 34 34
67 65 67 58 49 38 28 24 28 59 79 94 96 99 99 100 100 99 100 99 99 99 99 98 87 82 89 91 92 84 98 97 98 88 91 96 93 66 43 42 40 42 43 42 46 43 47 49 47 44 41 38 35 37
61 76 71 69 59 46 33 26 23 37 91 98 100 100 99 100 100 100 99 99 99 93 100 99 98 93 83 78 80 97 97 97 96 85 97 95 78 42 41 33 36 40 40 34 31 29 30 34 37 42 46 44 39 33
53 52 64 70 70 57 41 32 27 24 59 94 100 100 100 99 98 98 96 99 99 98 96 98 98 87 87 85 99 98 98 94 80 97 91 79 53 47 44 42 42 43 37 33 29 31 30 27 28 33 38 42 40 37
58 57 53 54 71 69 55 42 32 28 95 92 99 98 98 99 97 96 93 90 76 78 92 91 96 96 99 98 98 97 90 96 96 98 92 77 53 43 43 34 42 40 43 53 55 53 52 48 42 34 34 45 46 41
68 66 60 53 60 79 67 50 42 62 90 86 100 96 98 86 86 85 81 86 86 89 97 99 99 99 98 98 98 98 97 96 93 87 86 50 42 43 47 51 49 47 46 44 46 56 53 55 52 48 40 36 40 44
75 78 75 63 56 78 83 63 56 69 88 87 99 99 98 100 89 92 93 90 96 99 100 99 99 98 97 97 98 94 97 92 83 89 50 48 53 53 53 50 49 49 46 45 42 49 50 50 56 62 63 67 40 38
69 78 72 74 64 70 96 97 84 71 66 98 97 88 97 93 91 80 85 77 94 100 98 99 98 92 98 98 98 97 95 87 59 49 49 60 64 55 50 49 47 52 55 53 50 52 50 52 65 62 66 66 68 64
74 77 74 71 72 71 99 99 96 86 100 88 97 76 82 80 78 66 75 73 90 99 99 98 93 98 96 96 92 88 68 55 52 61 66 61 57 50 49 50 53 59 61 59 56 56 56 57 59 63 66 74 77 77
68 61 72 80 85 98 98 99 98 97 86 60 56 67 61 60 62 63 67 69 69 69 68 97 99 94 84 78 71 65 64 68 74 71 66 54 50 56 59 61 62 63 61 62 63 63 63 63 64 67 69 76 82 93
75 74 64 73 94 98 98 97 98 84 77 56 50 49 47 43 39 42 45 48 52 74 88 97 71 59 54 48 52 69 72 64 57 55 60 64 65 68 71 73 73 73 76 77 77 75 75 73 72 71 71 75 83 93
84 82 71 76 96 98 96 96 98 88 77 71 52 52 47 40 42 49 54 51 66 73 73 58 56 54 55 57 56 60 60 61 64 70 71 73 72 73 75 77 78 81 82 83 86 84 86 85 79 78 81 88 91 98
94 86 86 84 98 97 98 97 87 86 94 86 89 66 60 64 59 58 54 70 74 69 68 64 64 67 72 73 66 60 66 70 72 74 80 82 83 83 82 84 86 88 89 90 94 94 90 90 90 92 95 99 100 99
97 97 99 98 97 96 95 94 97 95 98 98 85 98 98 83 62 58 64 62 57 48 44 45 43 42 45 42 50 61 65 69 71 68 72 71 65 69 80 85 91 95 96 94 96 99 99 95 95 99 100 100 100 99
98 98 97 98 98 96 96 98 98 97 97 96 98 89 83 69 53 71 85 55 51 49 52 47 42 50 58 60 62 59 53 46 54 66 72 73 69 71 69 92 98 99 99 100 100 100 98 100 100 100 99 100 99 99
98 98 97 97 93 98 96 97 98 96 96 96 88 90 87 59 82 100 81 46 44 46 41 43 51 56 62 57 53 50 43 49 57 52 38 41 57 64 71 93 88 90 100 99 98 100 100 100 100 100 100 99 99 99
96 91 95 93 96 92 94 96 96 95 92 92 95 71 79 89 91 83 83 42 43 40 37 39 41 48 47 37 41 40 40 48 58 51 44 39 46 60 68 79 83 85 95 100 100 99 99 99 100 100 100 99 98 99
96 97 97 95 91 93 91 85 82 90 93 91 93 98 86 93 94 77 37 34 34 32 30 29 29 30 31 29 31 34 33 40 47 47 44 36 36 46 58 73 79 64 96 100 99 100 99 99 98 96 87 85 87 90
89 87 89 93 94 86 90 96 89 87 83 70 82 91 83 83 74 35 32 30 30 29 30 30 31 32 33 33 33 35 35 34 39 47 48 44 43 43 45 55 76 88 89 76 75 98 100 100 96 88 79 73 74 79
99 84 79 97 100 99 91 84 82 59 43 50 69 57 61 39 35 36 33 32 33 35 37 36 36 40 44 44 44 43 44 48 58 63 64 68 62 48 61 82 96 82 66 61 73 86 92 91 88 84 79 78 78 79
87 90 90 98 97 96 74 61 52 45 45 45 46 45 43 41 37 35 38 40 41 42 44 51 54 59 63 65 67 68 68 68 68 71 80 80 74 59 79 96 99 80 59 58 58 67 82 82 77 77 76 78 82 84
83 89 85 93 94 61 54 49 49 52 52 54 50 56 56 54 52 48 45 46 47 51 62 66 67 67 71 80 84 77 77 75 77 78 77 75 79 93 96 98 99 91 71 69 66 62 62 68 73 78 81 84 93 99
85 89 92 100 93 60 62 59 58 62 60 62 65 62 63 68 70 61 48 41 50 59 53 56 64 71 79 96 87 80 77 76 78 77 80 86 96 97 98 95 75 63 68 70 66 66 67 69 74 79 86 100 100 100
96 93 89 76 75 76 65 69 80 88 81 76 65 63 64 67 72 53 45 44 46 46 44 47 49 54 63 69 76 75 75 76 76 83 95 97 97 97 98 92 67 63 66 69 71 72 73 78 84 92 100 100 100 100
Wind_Speed
24 22 21 21 21 20 17 18 17 18 19 16 13 12 12 13 13 12 11 10 8 7 17 14 14 12 10 6 3 2 2 2 2 2 3 3 3 4 2 4 6 8 8 5 5 6 9 13 7 8 7 6 12 11
25 26 25 24 23 22 20 19 18 19 20 20 18 13 12 14 15 15 14 12 12 13 14 18 22 21 21 18 9 9 3 4 9 2 2 2 2 2 4 4 4 3 7 6 12 8 8 28 14 17 10 13 15 16
28 27 26 25 25 24 22 22 22 21 20 23 21 15 11 14 16 18 17 16 14 13 21 14 4 3 13 22 24 8 8 9 7 7 2 3 5 3 4 5 4 5 19 5 1 9 26 30 34 33 29 29 28 27
30 31 30 29 27 25 25 25 25 25 23 21 20 15 12 14 15 19 21 18 15 8 6 7 7 7 5 7 16 29 23 11 8 7 5 3 3 8 3 5 5 9 7 7 13 25 28 36 34 34 32 28 32 28
28 29 29 28 28 27 27 28 28 28 27 24 20 15 15 16 16 17 22 24 20 14 4 8 18 30 26 25 22 23 31 24 11 4 5 3 5 2 5 4 13 18 11 9 10 26 21 23 21 16 21 22 20 22
25 25 25 24 24 24 25 27 28 27 26 23 18 14 15 16 15 15 13 21 29 26 5 3 6 13 14 10 11 17 19 21 16 8 6 8 12 3 3 5 14 25 35 39 32 40 33 36 30 26 26 24 22 18
19 20 20 20 19 20 21 22 23 22 20 17 16 15 16 16 20 26 10 5 4 22 5 5 5 4 5 8 8 10 13 10 10 7 7 6 3 8 3 6 31 18 26 34 40 41 35 37 27 26 27 25 23 24
19 18 17 17 17 17 18 19 19 16 14 14 15 16 17 17 20 27 33 29 13 13 8 3 3 3 9 6 5 7 7 11 9 6 5 5 6 7 6 33 47 30 27 29 35 37 40 44 36 32 27 27 27 27
21 19 19 18 17 16 16 16 14 13 13 12 13 14 17 18 22 29 28 26 27 16 6 9 4 4 10 7 5 7 7 4 6 5 5 8 4 7 20 29 29 25 22 29 28 27 31 29 31 35 33 30 29 29
22 21 20 18 17 15 14 14 13 12 11 12 11 9 7 7 21 17 12 11 18 10 11 6 9 4 14 13 10 7 6 3 3 6 6 4 5 45 46 58 53 45 40 34 27 35 30 33 34 33 32 34 36 37
22 22 21 20 19 17 15 13 12 11 9 10 6 6 5 8 10 7 8 9 9 4 8 10 26 11 14 5 4 11 3 3 3 4 5 3 4 13 29 29 29 27 24 24 28 34 33 34 35 33 31 30 28 29
25 23 22 21 19 18 16 15 13 10 8 6 6 9 10 8 8 6 5 5 5 5 7 6 6 14 9 8 6 8 4 4 6 10 3 4 7 32 21 22 24 25 19 20 19 22 22 24 28 31 32 32 29 22
25 26 24 22 20 18 16 14 13 11 11 14 6 5 6 9 6 6 7 3 3 6 11 9 4 11 9 10 5 4 5 6 9 2 4 6 21 20 28 27 24 19 15 15 19 20 20 23 23 23 26 26 24 22
26 25 25 24 21 18 18 16 13 11 5 6 5 5 7 5 5 5 4 4 8 6 16 17 6 6 6 5 2 4 4 4 3 4 7 4 14 16 18 19 22 20 19 24 28 28 25 25 25 25 25 27 27 32
27 26 25 24 23 21 18 17 14 11 8 8 7 6 8 11 7 6 11 7 3 6 17 6 3 7 2 3 3 3 4 6 7 6 4 4 15 20 21 26 31 35 37 38 37 30 31 31 29 30 26 25 27 28
26 25 29 26 25 22 20 20 19 20 7 8 10 7 8 4 6 6 8 9 7 15 13 3 2 3 5 4 6 8 4 7 5 4 11 14 22 27 27 26 26 28 34 35 30 33 38 35 31 29 28 30 27 28
27 31 29 27 26 25 22 22 18 13 10 9 11 23 19 9 7 9 7 12 10 16 3 4 4 7 2 4 4 4 5 4 9 22 32 32 27 35 41 46 49 46 37 41 43 43 42 35 28 30 35 37 32 31
31 31 29 26 24 22 24 28 15 11 12 19 10 23 16 16 13 18 13 11 12 11 5 4 5 7 6 6 7 5 17 27 33 33 32 33 38 47 48 49 48 45 41 40 40 39 36 34 38 43 42 38 34 36
31 31 29 29 23 26 11 13 16 10 23 25 35 28 23 23 23 23 18 17 17 20 15 6 6 7 9 10 12 20 26 27 28 33 39 44 45 41 42 43 45 46 48 45 43 46 45 45 46 44 41 37 37 43
30 29 29 28 26 25 9 9 14 13 10 18 31 31 26 29 32 32 29 27 26 24 12 6 13 30 33 36 36 32 33 36 41 39 41 42 40 40 41 41 45 47 48 48 47 47 48 46 43 41 41 41 40 41
29 31 28 29 32 36 15 9 10 9 9 10 20 25 23 27 33 32 31 30 15 14 11 31 39 42 40 38 41 42 46 46 40 36 38 41 44 44 46 45 44 41 41 43 45 46 42 47 47 42 40 40 38 37
31 30 31 30 21 14 13 19 12 11 10 7 5 17 14 17 24 25 26 13 14 31 30 35 38 38 36 37 45 48 43 41 43 43 42 40 41 40 42 43 41 41 41 41 40 43 47 46 44 41 37 39 40 40
30 28 26 24 15 13 8 17 14 16 7 6 9 4 4 6 11 16 8 19 31 41 44 41 43 42 43 45 45 44 43 41 41 39 38 36 37 40 40 41 42 41 40 43 42 41 43 45 44 41 39 38 39 39
32 22 14 11 18 6 11 10 10 9 9 4 4 4 3 11 9 9 5 20 40 40 35 40 43 42 39 38 38 40 43 40 37 36 35 34 36 37 39 39 39 38 37 41 41 40 43 44 40 39 37 35 37 35
11 12 11 7 13 7 5 7 5 3 4 4 5 5 4 9 4 4 6 16 29 33 39 39 36 38 37 40 44 43 34 34 32 30 30 33 39 39 38 39 38 38 37 39 39 37 36 35 37 36 35 32 30 28
9 15 8 12 9 7 7 6 6 6 5 7 8 4 9 4 4 7 5 30 32 37 39 38 37 37 39 39 40 38 39 38 34 33 38 37 39 37 39 40 42 44 36 33 33 32 29 25 24 23 23 21 18 15
7 7 8 10 11 7 4 3 7 4 7 7 4 4 4 5 8 5 27 35 40 41 39 37 39 41 42 42 41 38 40 42 47 47 46 50 50 46 45 45 45 43 35 32 32 29 28 22 17 15 14 13 13 14
8 13 10 13 9 13 6 3 6 7 5 7 7 6 9 10 8 31 37 37 35 37 38 39 39 41 42 44 47 50 52 53 51 49 51 54 52 48 45 39 34 26 25 29 25 21 22 21 18 16 15 14 11 10
10 19 17 7 4 6 7 7 7 15 21 22 9 11 11 38 42 38 42 44 43 42 44 49 54 50 47 50 53 54 52 51 47 45 45 45 46 48 36 28 22 20 21 20 18 19 18 17 16 15 14 13 12 13
14 21 7 6 7 9 15 24 27 39 38 40 36 33 33 37 44 47 45 47 48 53 56 50 50 45 45 45 46 45 44 42 41 40 38 42 44 42 35 29 23 16 14 14 14 14 16 17 17 18 18 17 17 16
8 19 3 6 5 21 38 36 36 33 26 28 35 32 36 40 41 44 50 54 56 56 50 48 48 46 44 43 44 43 43 41 37 38 39 39 35 32 32 26 23 19 18 18 17 16 15 17 19 20 19 17 15 13
17 16 8 6 5 24 15 10 18 23 27 25 24 30 32 27 28 40 49 45 44 43 45 42 40 43 41 42 41 41 43 43 40 36 34 34 34 29 19 16 18 21 22 20 18 17 17 17 17 17 15 14 14 14
7 5 7 4 2 4 10 6 2 4 8 11 21 31 32 26 14 36 41 32 29 29 31 35 39 39 39 40 32 26 26 27 26 27 30 31 23 20 18 17 19 20 20 19 18 17 16 15 14 14 14 14 12 11
Wind_Direction
291 291 295 291 288 290 288 288 290 296 305 314 308 299 298 300 294 288 289 286 267 267 276 246 239 243 230 218 160 173 39 210 109 196 193 249 220 238 259 177 181 175 168 197 190 230 272 194 127 177 216 191 200 210
278 283 286 287 285 283 284 285 286 291 298 303 306 294 284 287 283 279 280 289 280 260 276 282 276 262 250 250 240 215 246 185 212 163 254 283 278 275 199 268 144 238 197 184 192 217 243 191 216 229 236 227 225 237
272 274 274 275 278 280 280 279 281 284 291 299 305 296 273 277 271 276 275 274 280 284 295 279 290 285 240 250 232 235 230 222 210 216 222 247 255 148 226 237 225 243 202 227 162 242 246 248 246 249 254 256 260 266
270 273 275 274 273 275 276 278 282 283 284 288 290 293 263 267 266 265 272 274 260 260 273 285 288 284 249 247 227 228 237 235 231 227 235 232 213 205 245 262 235 213 158 202 257 269 269 265 256 265 261 259 259 264
272 274 274 275 277 277 277 279 280 282 283 284 277 281 267 263 262 260 272 267 258 233 253 282 282 288 275 265 253 234 230 232 224 206 221 234 246 258 267 268 256 210 227 217 237 251 242 269 279 267 277 276 270 265
273 273 275 277 278 279 278 278 280 280 280 279 268 269 267 267 246 240 267 274 245 233 254 285 270 269 257 254 239 224 228 225 214 201 223 237 232 222 260 252 249 251 235 233 242 260 262 268 278 274 266 269 270 258
276 276 277 277 278 278 280 280 283 283 284 278 267 261 260 263 240 217 228 221 179 204 220 271 260 253 237 217 216 218 213 214 222 227 238 234 217 209 245 258 264 265 261 255 257 257 268 264 259 267 271 270 267 269
269 271 274 277 280 281 283 284 283 279 282 272 267 263 261 267 252 239 246 246 233 184 197 226 248 259 195 182 198 193 193 205 220 230 235 209 191 210 254 242 260 266 268 266 264 269 268 273 270 268 265 265 267 263
266 270 271 273 277 282 285 288 289 282 263 272 270 265 268 243 216 233 250 250 232 216 213 192 187 206 186 182 177 184 189 214 233 226 228 180 190 224 237 256 265 267 260 277 287 278 280 279 276 266 262 258 254 255
263 264 266 269 273 277 284 287 279 278 277 256 273 256 230 207 219 236 223 200 210 217 226 211 198 206 183 174 180 167 192 235 234 219 185 224 244 249 253 258 265 272 273 276 275 278 280 277 277 274 270 270 266 264
262 264 265 264 266 271 275 279 288 271 264 260 233 229 224 193 191 208 228 190 200 233 218 202 197 199 203 147 173 207 189 199 248 234 179 236 253 252 274 277 283 285 284 282 273 281 281 275 277 282 282 282 282 272
256 260 264 264 264 265 266 268 269 266 225 248 256 199 177 195 223 227 208 192 199 229 196 199 228 203 173 166 168 183 216 176 248 154 200 251 249 269 284 298 306 309 300 303 299 296 298 293 291 287 284 282 283 267
259 256 258 260 260 257 257 261 260 255 244 253 258 206 187 209 229 215 202 190 190 199 191 176 164 168 161 188 196 173 204 220 135 203 233 236 263 287 319 333 338 343 326 326 326 322 326 325 320 309 297 287 280 261
260 258 256 254 255 254 252 248 252 246 182 220 229 227 208 210 235 207 194 196 217 213 176 166 148 175 176 173 203 218 201 133 218 241 237 246 286 338 350 10 13 15 4 352 340 333 329 326 322 316 303 290 274 266
257 257 256 252 248 250 244 244 238 223 187 221 217 234 223 231 241 249 226 236 205 184 171 159 193 184 172 220 205 234 205 229 205 228 234 283 343 342 11 354 337 325 320 319 312 303 315 317 313 313 310 304 292 280
253 256 252 252 246 244 237 232 219 206 211 223 234 251 259 271 240 239 242 243 208 180 178 211 200 208 207 201 195 212 198 220 240 224 265 323 333 322 336 325 318 323 321 315 301 298 305 303 296 302 300 296 286 281
248 250 252 251 248 242 234 219 207 205 214 215 235 231 238 263 247 221 242 269 252 181 202 207 223 225 225 221 217 193 215 229 254 297 305 319 330 325 321 321 321 321 316 312 308 303 297 293 289 299 296 295 294 284
245 247 250 252 250 244 235 217 198 213 213 231 235 238 226 245 253 249 252 252 207 202 207 237 267 198 219 208 237 244 252 279 291 300 310 315 311 311 312 311 311 312 311 309 306 308 305 291 290 293 296 288 287 288
246 248 247 246 243 227 217 221 200 198 218 235 244 250 248 253 258 264 258 254 251 254 251 232 254 244 241 237 256 276 286 294 302 308 304 303 305 307 306 305 304 302 302 302 298 296 297 297 298 295 290 286 289 300
243 245 247 245 237 223 213 222 204 216 222 233 237 240 239 249 259 258 258 253 247 242 232 224 244 251 260 271 279 281 286 294 293 298 297 297 299 299 299 301 300 301 301 300 299 297 297 298 298 298 292 284 285 291
241 240 241 240 240 232 224 202 197 213 224 220 242 234 230 245 249 246 249 256 232 232 246 247 253 262 266 269 273 275 276 278 282 283 286 292 297 298 297 296 294 295 294 294 293 294 291 292 300 298 295 292 289 293
237 237 238 240 233 236 238 203 183 193 196 222 216 216 226 226 238 244 252 228 232 242 239 249 254 257 266 268 268 270 272 277 279 281 284 286 289 291 291 290 291 289 288 289 287 288 291 292 293 293 293 290 291 292
236 235 228 226 231 226 224 210 200 201 180 192 196 193 241 212 227 227 206 229 245 257 261 265 272 273 269 273 274 274 276 280 284 287 288 290 295 296 294 293 289 284 287 290 290 288 286 292 290 288 284 284 279 284
232 218 212 212 207 209 184 191 194 179 195 165 145 206 255 209 197 180 218 242 250 260 263 265 270 269 270 270 271 274 279 283 279 281 284 289 292 294 297 291 295 291 290 292 290 290 292 289 281 279 281 280 281 282
220 199 211 202 199 184 203 179 168 159 187 187 157 242 252 190 174 206 223 256 258 258 266 270 267 265 263 270 274 277 277 268 269 279 294 293 294 297 296 290 290 290 291 294 296 293 292 289 284 283 286 284 281 282
210 205 215 187 176 166 176 168 185 183 185 197 220 225 175 146 165 239 225 250 256 260 266 268 269 267 269 274 273 274 272 270 269 278 289 298 295 289 290 290 292 292 295 290 293 300 300 298 294 292 290 283 277 271
201 201 199 191 175 153 190 201 165 145 179 194 209 167 154 208 227 244 256 261 261 267 273 275 272 269 271 275 275 276 281 276 274 278 287 296 298 294 291 289 284 287 292 292 294 288 291 290 284 285 287 282 267 259
216 194 183 188 207 200 164 154 167 190 203 196 149 176 185 202 223 253 262 275 279 280 279 278 278 277 276 274 274 276 281 284 281 281 286 289 291 292 292 292 288 283 288 287 281 268 272 272 276 279 280 277 266 253
192 211 191 181 172 195 197 189 203 214 223 204 208 228 231 240 253 265 273 276 280 282 282 281 280 279 278 278 278 279 276 273 272 275 277 281 287 291 295 293 286 288 280 279 266 259 262 264 266 267 262 256 249 245
215 198 167 177 184 204 213 210 230 238 236 233 234 245 255 259 262 266 271 276 280 279 279 278 278 277 273 272 272 271 268 266 265 266 265 270 278 291 290 283 280 283 268 269 268 258 253 256 254 254 255 257 259 261
186 184 171 175 216 237 236 239 242 246 251 245 247 244 252 261 269 272 275 279 279 278 274 275 276 276 274 273 270 267 268 267 265 264 267 274 279 281 280 267 269 269 262 268 269 266 261 256 258 259 261 263 265 264
192 188 182 202 249 237 242 241 237 239 248 251 255 260 264 265 264 273 275 278 275 271 277 279 278 284 289 289 283 269 265 269 270 271 274 273 283 281 263 255 259 260 264 269 267 263 262 260 257 256 256 254 251 249
192 205 204 212 253 255 224 206 225 265 238 240 248 252 254 255 256 266 277 276 270 274 286 290 285 285 289 292 289 283 281 277 276 273 273 278 265 247 239 246 257 262 262 260 261 261 258 258 259 259 254 251 247 238